#timestamp,LO_Frequency,Hit,StdDev 
1577077215.3,286047000.8,N
1577077235.1,286046998.3,N
1577077255.9,286046998.1,N
1577077275.7,286046997.4,N
1577077295.6,286046997.1,N
1577077315.4,286046997.9,N
1577077335.2,286046997.1,N
1577077355.1,286046995.5,N
1577077356.0,286046995.5,N
1577077375.8,286046994.9,N
1577077395.6,286046997.6,N
1577077415.5,286046998.4,N
1577077435.3,286046998.3,N
1577077455.2,286046998.2,N
1577077475.9,286047002.2,N
1577077495.7,286046998.7,N
1577077515.6,286046997.6,N
1577077535.4,286046997.2,N
1577077555.3,286046995.6,N
1577077575.1,286046995.3,N
1577077576.0,286046995.3,N
1577077595.8,286046995.3,N
1577077615.7,286046996.2,N
1577077635.5,286046993.3,Y
1577077655.3,286046997.0,P
1577077675.2,286046996.7,P
1577077695.0,286046999.0,P
1577077695.9,286046999.0,N
1577077715.8,286046999.0,N
1577077735.6,286046999.5,N
1577077755.4,286046999.4,N
1577077775.3,286046998.1,N
1577077795.1,286047000.6,N
1577077815.9,286047000.8,N
1577077835.7,286046998.5,N
1577077855.5,286046996.6,N
1577077875.4,286046999.0,N
1577077895.2,286046999.0,N
1577077915.0,286047001.5,N
1577077946.0,286047003.9,E
1577077955.9,286047000.1,N
1577077975.7,286047000.9,P
1577077995.6,286047000.0,N
1577078015.4,286046999.3,N
1577078035.2,286046999.9,N
1577078055.1,286047000.4,N
1577078056.0,286047000.4,N
1577078075.8,286047004.4,Y
1577078095.7,286047001.5,P
1577078115.5,286047002.3,P
1577078135.3,286047001.0,N
1577078155.2,286046999.3,N
1577078175.0,286046998.5,N
1577078175.9,286046998.5,N
1577078195.8,286046998.1,N
1577078215.6,286047000.1,N
1577078235.4,286047001.1,N
1577078255.3,286046998.6,N
1577078275.1,286046999.0,N
1577078295.9,286046999.2,N
1577078315.7,286046997.6,N
1577078335.5,286046997.2,N
1577078355.4,286046994.9,Y
1577078375.2,286046997.1,P
1577078395.0,286046997.9,N
1577078395.9,286046997.9,N
1577078415.8,286046997.8,N
1577078435.6,286046995.8,Y
1577078455.5,286046996.6,P
1577078475.3,286046998.3,N
1577078495.1,286047000.8,N
1577078515.9,286046998.9,N
1577078535.7,286046998.6,N
1577078555.6,286046996.5,N
1577078575.4,286046997.5,N
1577078595.2,286046999.3,N
1577078615.1,286046998.3,N
1577078616.0,286046998.3,N
1577078635.8,286046998.7,N
1577078655.6,286046997.2,N
1577078675.5,286046999.5,N
1577078695.3,286046997.2,N
1577078715.2,286046997.0,N
1577078735.9,286046997.4,N
1577078755.7,286046996.7,Y
1577078775.6,286047002.4,P
1577078795.4,286047001.9,N
1577078815.3,286047001.7,N
1577078835.1,286047004.3,N
1577078836.0,286047004.3,N
1577078855.8,286047004.2,N
1577078875.7,286047003.3,N
1577078895.5,286047001.3,N
1577078915.4,286047001.3,N
1577078935.2,286047004.1,N
1577078955.0,286047001.9,N
1577078955.9,286047001.9,N
1577078975.8,286047003.5,N
1577078995.6,286047001.3,N
1577079015.4,286047002.4,N
1577079035.3,286047001.3,N
1577079055.1,286047002.0,N
1577079075.9,286047002.1,N
1577079095.7,286047002.7,N
1577079115.5,286047001.0,N
1577079135.4,286046998.6,N
1577079155.2,286047000.8,N
1577079175.0,286046998.2,N
1577079175.9,286046998.2,N
1577079195.8,286047001.1,N
1577079215.6,286047000.4,N
1577079235.5,286047001.1,N
1577079255.3,286047001.0,N
1577079275.1,286046999.7,N
1577079295.9,286047000.4,N
1577079315.7,286047000.6,N
1577079335.6,286046998.5,N
1577079355.4,286047000.7,N
1577079375.2,286047000.8,N
1577079395.1,286046998.4,N
1577079396.0,286046998.4,N
1577079415.8,286047001.2,N
1577079435.6,286047002.4,N
1577079455.5,286047001.5,N
1577079475.3,286047001.6,N
1577079495.2,286047002.2,N
1577079515.9,286047003.5,N
1577079535.7,286047005.0,Y
1577079555.6,286047004.6,P
1577079575.4,286047009.1,P
1577079595.2,286047007.1,N
1577079615.1,286047005.9,N
1577079616.0,286047005.9,N
1577079635.8,286047005.2,N
1577079655.7,286047005.7,N
1577079675.5,286047002.1,N
1577079695.3,286047003.0,N
1577079715.2,286047003.0,N
1577079735.0,286047003.4,N
1577079735.9,286047003.4,N
1577079755.8,286047001.3,N
1577079775.6,286047001.4,N
1577079795.4,286047001.4,N
1577079815.3,286047002.3,N
1577079835.1,286047002.4,N
1577079855.8,286046998.4,N
1577079875.7,286046998.8,N
1577079895.5,286046999.4,N
1577079915.4,286046998.5,N
1577079935.2,286047000.6,N
1577079955.0,286047002.6,N
1577079955.9,286047002.6,N
1577079975.8,286046999.7,N
1577079995.6,286047000.9,N
1577080015.4,286047001.1,N
1577080035.3,286047000.8,N
1577080055.1,286046999.1,N
1577080075.9,286046998.8,N
1577080095.7,286046998.6,N
1577080115.5,286047002.7,N
1577080135.4,286046998.1,N
1577080155.2,286046998.8,N
1577080175.1,286046999.0,N
1577080176.0,286046999.0,N
1577080195.8,286046996.7,N
1577080215.6,286046997.4,N
1577080235.5,286046997.6,N
1577080255.3,286046997.7,N
1577080275.1,286046997.9,N
1577080295.9,286046996.8,N
1577080315.7,286046997.8,N
1577080335.6,286046995.4,N
1577080355.4,286046997.5,N
1577080375.2,286046995.1,N
1577080395.1,286046997.2,N
1577080396.0,286046997.2,N
1577080415.8,286046997.0,N
1577080435.7,286046997.7,N
1577080455.5,286046997.5,N
1577080475.3,286046997.4,N
1577080495.2,286046997.2,N
1577080515.9,286046996.9,N
1577080535.7,286046997.1,N
1577080555.6,286046995.0,Y
1577080575.4,286047000.0,P
1577080595.3,286047002.6,N
1577080615.1,286047000.7,N
1577080616.0,286047000.7,N
1577080635.8,286047000.7,N
1577080655.7,286046999.8,N
1577080675.5,286047000.7,N
1577080695.3,286046998.9,N
1577080715.2,286047000.5,N
1577080735.0,286047001.2,N
1577080735.9,286047001.2,N
1577080755.8,286047002.3,N
1577080775.6,286046999.8,N
1577080795.4,286047000.6,N
